Location: ???????-?????
(55.8067°N, 38.9618°E)
Time: 18:07:36
(UTC+00:00)

Daily predictions for brighter satellites

Satellite Brightness Start Highest point End
(mag) Time Altitude Azimuth Time Altitude Azimuth Time Altitude Azimuth
Okean-O 2.6 14:34:18 10° SSE 14:38:42 69° ENE 14:43:08 10° NNW
Unknown 4.0 14:35:30 10° WSW 14:39:35 58° S 14:43:39 10° E
Geosat 4.5 14:35:56 10° NNE 14:40:56 65° NW 14:45:55 10° SW
Unknown 4.0 14:37:12 10° WSW 14:41:17 58° S 14:45:22 10° E
Cosmos 1939 Rocket 4.3 14:39:24 10° ESE 14:42:20 19° ENE 14:45:18 10° N
Unknown 4.0 14:38:42 10° WSW 14:42:44 59° S 14:46:47 10° E
Cosmos 2084 3.6 14:39:03 10° SW 14:43:35 88° NNW 14:48:02 10° NE
Cosmos 1726 2.6 14:40:47 10° SSE 14:44:12 39° E 14:47:39 10° NNE
Unknown 4.0 14:40:31 10° WSW 14:44:36 58° S 14:48:40 10° E
Cosmos 1535 Rocket 4.5 14:38:44 10° N 14:45:00 80° ENE 14:51:08 10° SSE
Cosmos 1703 3.2 14:41:19 10° N 14:45:16 69° ENE 14:49:10 10° SSE
Unknown 4.0 14:41:24 10° WSW 14:45:28 59° S 14:49:34 10° E
Unknown 4.0 14:42:11 10° WSW 14:46:16 59° S 14:50:22 10° E
CZ-4B R/B 3.8 14:44:57 10° NNW 14:47:20 21° WNW 14:49:45 10° WSW
Unknown 4.0 14:44:01 10° WSW 14:48:07 59° S 14:52:13 10° E
Nadezhda 3 Rocket 4.1 14:41:47 10° S 14:48:08 84° E 14:54:33 10° NNE
Meteor 2-10 4.2 14:45:07 10° SSE 14:49:55 47° E 14:54:45 10° NNE
Unknown 4.0 14:47:10 10° WSW 14:51:15 59° S 14:55:20 10° E
Ariane Rocket 4.0 14:47:03 10° ESE 14:51:18 27° NE 14:55:33 10° N
Cosmos 1992 Rocket 4.1 14:46:06 10° SSW 14:51:20 82° WNW 14:56:37 10° NNE
Cosmos 2278 Rocket 2.8 14:48:41 10° S 14:53:52 38° ESE 14:59:04 10° NE
Meteor 1-16 Rocket 4.1 14:49:03 10° S 14:54:25 64° E 14:59:42 10° NNE
ASTEX 1 3.7 14:49:45 10° NNE 14:54:33 46° E 14:59:20 10° SSE
Unknown 4.0 14:50:29 10° WSW 14:54:34 59° S 14:58:39 10° E
Unknown 4.0 14:52:05 10° WSW 14:56:10 59° S 15:00:16 10° E
Cosmos 2228 3.0 14:52:53 10° S 14:57:14 88° ESE 15:01:35 10° NNE
Unknown 4.0 14:53:47 10° WSW 14:57:52 59° S 15:01:56 10° E
Lacrosse 5 3.0 14:53:50 10° WNW 14:58:39 45° SW 15:03:27 10° SE
Cosmos 1937 Rocket 4.2 14:54:24 10° NNW 14:59:06 34° NE 15:03:46 10° ESE
Unknown 4.0 14:55:23 10° WSW 14:59:28 59° S 15:03:28 10° E
CSL-04 Rocket 3.8 14:56:24 10° SE 15:01:44 54° ENE 15:07:02 10° N
Cosmos 1844 3.9 14:56:20 10° SW 15:02:06 85° NW 15:07:58 10° NE
Cosmos 1908 3.6 14:59:07 10° SSE 15:02:48 43° E 15:06:31 10° NNE
Cosmos 921 Rocket 3.1 14:58:28 10° SSW 15:02:58 90° NNW 15:07:24 10° NNE
SKYMED 2 4.3 15:00:13 10° NNE 15:04:11 33° E 15:08:06 10° SSE
Unknown 4.0 15:02:04 10° W 15:06:09 60° S 15:09:55 12° ESE
Cosmos 2263 Rocket 3.8 15:01:33 10° W 15:06:28 30° NNW 15:11:24 10° NNE
EO 1 Delta rocket 4.2 15:02:04 10° SE 15:06:41 50° ENE 15:12:06 10° N
Unknown 4.0 15:03:44 10° W 15:07:49 60° S 15:11:31 12° ESE
Meteor 1-11 4.4 15:02:03 10° NNW 15:07:52 87° WSW 15:13:42 10° S
YAOGAN 1 2.7 15:04:12 10° SE 15:08:23 51° ENE 15:12:36 10° N
Unknown 4.0 15:05:23 10° W 15:09:29 60° S 15:13:07 13° ESE
YAOGAN 6 2.6 15:07:02 10° SSE 15:10:36 58° ENE 15:14:08 10° N
Unknown 4.0 15:07:01 10° W 15:11:07 60° S 15:14:41 13° ESE
FengYun 1-2 T 4.2 15:07:02 10° SSE 15:12:38 77° ENE 15:18:14 10° NNW
Unknown 4.0 15:08:42 10° W 15:12:47 60° S 15:16:18 14° ESE
Cosmos 1726 Rocket 3.9 15:10:00 10° SSW 15:14:21 71° WNW 15:18:42 10° N
Cosmos 489 Rocket 4.4 15:08:26 10° SSW 15:14:35 69° ESE 15:20:47 10° NNE
Cosmos 2100 Rocket 4.3 15:08:49 10° N 15:14:45 44° ENE 15:20:36 10° SE
ATLAS 3B R/B 4.0 15:11:15 10° SE 15:15:16 17° ESE 15:17:53 14° E
Unknown 4.2 15:11:37 10° W 15:15:18 46° SSW 15:18:52 11° ESE
Unknown 4.0 15:12:00 10° W 15:16:06 59° S 15:19:29 14° ESE
Cosmos 1825 4.3 15:15:32 10° NE 15:16:15 11° NE 15:16:15 11° NE
CZ-4 R/B 1.4 15:12:32 10° SSE 15:16:45 73° ENE 15:20:59 10° NNW
Cosmos 1833 Rocket 3.3 15:11:42 10° NW 15:17:14 60° WSW 15:22:45 10° SSE
Starlink (trailer) 4.0 15:13:39 10° W 15:17:44 59° S 15:21:04 15° ESE
Unknown 4.0 15:15:20 10° W 15:19:25 59° S 15:22:41 15° ESE
USA 116 4.4 15:17:29 10° NE 15:20:11 24° E 15:23:03 10° SSE
ATLAS CENTAUR R/B 2.6 15:16:26 10° NW 15:20:42 33° NNE 15:23:38 16° ENE
Unknown 4.0 15:17:02 10° W 15:21:07 59° S 15:24:20 16° ESE
CENTAUR R/B 3.8 15:17:01 10° SSE 15:21:07 19° ESE 15:23:54 15° ENE
NOAA 11 4.4 15:18:37 10° SE 15:23:51 51° ENE 15:29:06 10° N
SJ-6B 4.4 15:25:28 16° ENE 15:25:47 16° NE 15:28:08 10° NNE
Cosmos 1892 3.8 15:22:42 10° N 15:25:53 24° ENE 15:27:33 18° ESE
Unknown 4.0 15:21:59 10° W 15:26:04 59° S 15:29:06 17° ESE
Unknown 4.0 15:23:37 10° W 15:27:41 58° S 15:30:39 18° ESE
Cosmos 1953 4.0 15:24:45 10° SW 15:28:32 36° WNW 15:32:21 10° N
Cosmos-2242 4.3 15:25:46 10° SE 15:28:48 19° E 15:31:50 10° NE
Unknown 4.0 15:25:17 10° W 15:29:22 58° S 15:32:15 18° ESE
Cosmos 2016 Rocket 4.5 15:23:31 10° N 15:29:23 39° ENE 15:35:17 10° SE
Cosmos 1153 Rocket 4.4 15:24:34 10° N 15:30:45 77° ENE 15:36:54 10° SSE
Unknown 4.0 15:26:53 10° W 15:31:00 58° S 15:33:52 19° ESE
Cosmos 292 Rocket 3.8 15:27:23 10° SSW 15:32:08 81° WNW 15:36:57 10° NNE
Unknown 4.0 15:28:35 10° W 15:32:40 58° S 15:35:26 19° ESE
Unknown 4.0 15:30:20 10° W 15:34:25 57° S 15:37:08 20° ESE
SL-27 R/B 3.1 15:33:49 10° NNW 15:36:52 32° NE 15:37:51 26° E
Unknown 4.0 15:33:36 10° W 15:37:41 57° S 15:40:16 21° ESE
Unknown 4.0 15:33:39 10° W 15:37:44 57° S 15:40:20 21° ESE
SJ 16-02 1.5 15:34:47 10° NNW 15:39:05 49° ENE 15:42:23 16° SE
Unknown 4.0 15:35:14 10° W 15:39:19 57° S 15:41:51 22° ESE
Unknown 4.0 15:38:29 10° W 15:42:33 57° S 15:44:57 23° ESE
COBE Rocket 4.0 15:37:56 10° NNE 15:43:08 89° WNW 15:48:12 10° SSW
Unknown 4.4 15:40:19 10° W 15:44:00 42° SSW 15:46:30 18° SE
Cosmos 2058 Rocket 3.9 15:41:14 10° SSW 15:45:30 54° WNW 15:49:50 10° N
Unknown 4.0 15:41:53 10° W 15:45:57 56° S 15:48:14 24° ESE
Cosmos 2227 Rocket 4.1 15:43:15 10° NW 15:47:03 18° N 15:50:32 11° NE
SPOT 3 Rocket 4.3 15:44:39 21° ESE 15:47:08 32° ENE 15:51:44 10° N
Envisat 3.9 15:42:24 10° S 15:47:21 52° W 15:52:21 10° NNW
Unknown 4.0 15:43:32 10° W 15:47:36 55° S 15:49:49 25° ESE
Cosmos 1300 2.9 15:45:25 10° S 15:49:04 47° E 15:52:46 10° NNE
Unknown 4.0 15:45:12 10° W 15:49:16 55° S 15:51:26 25° ESE
Unknown 4.0 15:46:53 10° W 15:50:57 55° S 15:53:04 26° ESE
Cosmos 2297 Rocket 4.0 15:47:50 10° NW 15:51:40 18° N 15:54:51 12° NE
Abrixas rocket 3.8 15:49:44 10° SW 15:52:06 20° S 15:52:46 19° SSE
Cosmos 2082 Rocket 3.2 15:46:47 10° NW 15:52:17 49° WSW 15:57:43 10° S
COSMO-SKYMED 1 2.5 15:48:04 10° NNE 15:52:27 83° ESE 15:56:48 10° SSW
CSL-04 Debris 4.5 15:47:17 10° S 15:52:45 72° WSW 15:58:17 10° NNW
Cosmos 1898 Rocket 3.5 15:47:30 10° NNW 15:52:50 87° ENE 15:58:09 10° SSE
USA 238 DEB 3.8 15:46:37 10° SSW 15:53:08 55° SE 15:58:43 16° ENE
USA 238 3.8 15:46:43 10° SSW 15:53:14 54° SE 15:58:46 16° ENE
Unknown 4.0 15:50:12 10° W 15:54:15 54° S 15:56:14 27° SE
Unknown 4.1 15:51:55 10° W 15:55:58 53° S 15:57:53 28° SE
Cosmos 1408 3.9 15:53:07 10° N 15:55:38 24° NE 15:55:38 24° NE
Unknown 4.1 15:53:29 10° W 15:57:32 53° S 15:59:24 29° SE
MOS 1 4.4 15:52:18 10° SE 15:57:47 56° ENE 16:03:19 10° NNW
Cosmos 1459 Rocket 3.9 15:52:48 10° N 15:59:04 75° ENE 16:05:22 10° SSE
Unknown 4.1 15:55:05 10° W 15:59:09 53° S 16:00:56 29° SE
Unknown 4.1 15:56:50 10° W 16:00:52 52° SSW 16:02:37 30° SE
Cosmos 1844 Rocket 4.0 15:55:48 10° WSW 16:01:02 38° NW 16:06:17 10° NNE
Cosmos 2058 2.9 15:57:41 10° NNW 16:01:57 89° WSW 16:06:09 10° S
H-2A R/B 2.7 16:00:04 27° ESE 16:02:08 37° ENE 16:07:05 10° N
Unknown 4.1 15:58:19 10° W 16:02:22 53° SSW 16:04:02 31° SE
CZ-2D R/B 3.2 15:59:19 10° SSE 16:03:12 85° WSW 16:07:07 10° NNW
Unknown 4.1 16:01:35 10° W 16:05:38 52° SSW 16:07:11 33° SE
Unknown 4.1 16:03:16 10° W 16:07:19 52° SSW 16:08:48 33° SE
Cosmos 1766 Rocket 3.5 16:03:22 10° N 16:07:40 56° ENE 16:09:49 27° SE
Cosmos 1076 Rocket 4.0 16:03:21 10° NNW 16:07:41 62° W 16:11:58 10° S
Unknown 4.1 16:05:07 10° W 16:09:09 50° SSW 16:10:35 33° SE
Unknown 4.3 16:05:29 10° W 16:09:22 45° SSW 16:10:50 31° SSE
Unknown 4.1 16:06:38 10° W 16:10:40 51° SSW 16:12:02 35° SE
IRS-1A Rocket 4.1 16:06:37 10° SSE 16:12:08 83° ENE 16:17:44 10° NNW
Cosmos 2061 Rocket 3.9 16:06:00 10° N 16:12:16 71° ENE 16:18:27 10° SSE
Unknown 4.1 16:08:16 10° W 16:12:18 50° SSW 16:13:36 35° SE
In-Cosmos 22 Rocket 4.1 16:08:29 10° NNW 16:13:56 85° WSW 16:19:27 10° S
DMSP B5D1-3 4.5 16:08:49 10° NNE 16:13:56 62° ESE 16:19:02 10° S
NOSS 3-2 (A) 3.5 16:09:06 10° SSW 16:14:55 59° SE 16:19:08 23° ENE
Unknown 4.1 16:11:36 10° W 16:15:37 50° SSW 16:16:48 37° SE
Cosmos 1125 Rocket 4.2 16:11:50 10° NNW 16:16:43 36° NE 16:17:40 33° ENE
Cosmos 1939 Rocket 3.1 16:12:48 10° S 16:16:51 71° WSW 16:20:58 10° NNW
Unknown 4.1 16:13:14 10° W 16:17:15 49° SSW 16:18:23 38° SSE
ATLAS 5 CENTAUR R/B 2.9 16:12:49 10° W 16:17:17 39° N 16:20:17 21° NE
Cosmos 1408 Rocket 3.7 16:13:07 10° N 16:17:20 48° ENE 16:17:49 46° E
Unknown 4.2 16:14:54 10° W 16:18:54 49° SSW 16:19:58 38° SSE
Unknown 4.2 16:16:36 10° W 16:20:36 48° SSW 16:21:36 39° SSE
Unknown 4.3 16:17:57 10° W 16:21:52 45° SSW 16:22:50 37° SSE
ADEOS Rocket 3.9 16:15:48 10° NNE 16:22:46 36° E 16:26:12 24° SE
Cosmos 2151 2.9 16:19:20 10° N 16:23:41 81° ENE 16:25:51 29° SSE
Unknown 4.2 16:19:55 10° W 16:23:55 47° SSW 16:24:48 40° SSE
Okean 3 Rocket 3.6 16:19:47 10° NNW 16:24:21 84° W 16:28:25 13° S
Unknown 4.2 16:20:49 10° W 16:24:47 46° SSW 16:25:40 39° SSE
Unknown 4.3 16:21:37 10° W 16:25:35 45° SSW 16:26:27 38° SSE
Unknown 4.3 16:23:27 10° W 16:27:25 45° SSW 16:28:14 39° SSE
Cosmos 2173 Rocket 4.2 16:23:31 10° NNW 16:29:47 74° W 16:35:55 10° S
Ariane Rocket 3.3 16:24:49 10° S 16:29:55 69° WSW 16:35:02 10° NNW
Unknown 4.2 16:26:35 10° W 16:30:34 45° SSW 16:31:13 41° S
Meteor 2-1 Rocket 4.1 16:25:20 10° S 16:30:51 75° E 16:36:31 10° NNE
Cosmos 1818 4.4 16:26:57 10° NW 16:32:04 38° NNE 16:33:31 32° NE
Cosmos 468 Rocket 4.0 16:28:15 10° S 16:33:23 56° ESE 16:35:27 34° NE
Cosmos 1727 Rocket 4.3 16:27:23 10° SSW 16:33:32 68° WNW 16:39:44 10° N
Unknown 4.2 16:29:54 10° W 16:33:52 44° SSW 16:34:24 42° S
Cosmos 1812 Rocket 4.3 16:30:06 10° SSW 16:34:29 56° WNW 16:38:55 10° N
Unknown 4.2 16:31:31 10° W 16:35:28 44° SSW 16:35:57 42° S
Cosmos 1864 Rocket 4.3 16:29:55 10° N 16:36:06 79° ENE 16:40:52 18° SSE
Resurs 01 Rocket 2.9 16:38:17 28° NNE 16:38:17 28° NNE 16:41:03 10° N
Unknown 4.3 16:33:13 10° W 16:37:10 43° SSW 16:37:35 42° S
Cosmos 2278 Rocket 2.8 16:32:12 10° SW 16:37:48 57° NW 16:43:26 10° NNE
Unknown 4.3 16:34:49 10° W 16:38:46 43° SSW 16:39:07 42° S
Cosmos 1238 Rocket 4.2 16:32:29 10° N 16:39:00 52° ENE 16:40:24 44° ESE
HJ-1C 4.2 16:39:48 40° SSW 16:40:36 51° W 16:43:54 10° NNW
Resurs 1-3 4.5 16:42:22 36° NNE 16:42:22 36° NNE 16:45:28 10° N
Cosmos 1937 Rocket 4.0 16:36:19 10° NNW 16:41:23 58° WSW 16:44:59 19° S
NOSS 3-2 (C) 3.5 16:36:09 10° SSW 16:41:59 60° SE 16:44:15 39° ENE
Cosmos 2150 Rocket 4.0 16:37:20 10° NNW 16:42:49 77° ENE 16:44:11 51° SE
Cosmos 2297 3.6 16:38:07 10° SSW 16:43:49 73° ESE 16:47:20 24° NE
Cosmos 1802 Rocket 4.3 16:37:39 10° NNW 16:44:05 71° W 16:50:26 10° S
Unknown 4.4 16:41:31 10° W 16:45:26 41° SSW 16:45:34 41° SSW
Unknown 4.4 16:43:12 10° W 16:47:06 40° SSW 16:47:10 40° SSW
ARGOS 3.1 16:46:19 53° ESE 16:47:24 67° ENE 16:52:48 10° NNW
Unknown 4.5 16:44:51 10° W 16:48:45 40° SSW 16:48:46 40° SSW
Cosmos 2123 Rocket 3.9 16:43:32 10° S 16:49:44 64° E 16:55:55 10° NNE
Unknown 4.5 16:46:29 10° W 16:50:20 39° SSW 16:50:20 39° SSW
Cosmos 2233 Rocket 3.9 16:44:27 10° N 16:50:46 68° ENE 16:52:45 45° SE
SJ-11-01 4.4 16:50:12 37° S 16:52:02 74° WSW 16:56:45 10° NNW
CZ-4 R/B 4.4 16:49:20 10° SW 16:52:15 18° W 16:55:11 10° NW
Cosmos 2263 Rocket 4.3 16:48:32 10° NW 16:52:16 18° N 16:55:29 12° NNE
Cosmos 1825 3.5 16:49:02 10° N 16:51:05 30° N 16:51:05 30° N
Cosmos 1725 Rocket 4.0 16:47:58 10° NNW 16:54:17 84° W 16:59:06 18° S
Cosmos 1570 Rocket 4.4 16:50:29 10° S 16:54:26 47° SSE 16:54:26 47° SSE
SL-24 R/B 4.5 16:50:00 10° NNE 16:55:58 71° ESE 16:57:47 41° S
SJ-6B 3.6 17:01:06 44° NNW 17:01:06 44° NNW 17:03:46 10° NNW
ATLAS CENTAUR R/B 1.6 16:55:38 10° NW 16:59:50 72° NNW 16:59:50 72° NNW
Cosmos 372 Rocket 3.8 16:55:46 10° NNW 17:00:57 87° WSW 17:01:31 72° SSE
Cosmos 1892 3.9 16:58:09 10° NNW 17:01:46 41° W 17:02:35 35° SW
ATLAS 3B R/B 2.5 16:58:09 10° SSW 17:04:43 60° SE 17:05:11 59° ESE
Cosmos-2242 3.3 17:01:35 10° SSW 17:05:56 67° WNW 17:10:15 10° N
CZ-2C R/B 3.2 17:07:08 68° E 17:07:24 69° ENE 17:13:04 10° NNW
Cosmos 44 3.5 17:02:49 10° SW 17:06:48 60° SW 17:06:48 60° SW
Cosmos 1763 Rocket 3.6 17:02:50 10° SSW 17:07:18 63° S 17:07:18 63° S
CENTAUR R/B 2.5 17:04:13 10° SSW 17:10:22 66° SE 17:11:09 61° E
SL-27 R/B 4.5 17:09:04 10° NW 17:11:28 26° W 17:11:28 26° W
Cosmos 2298 Rocket 4.3 17:07:54 10° NNW 17:13:11 65° WSW 17:14:09 54° SSW
SJ 16-02 3.2 17:13:44 10° NW 17:17:28 28° WSW 17:19:25 20° SW
Cosmos 1833 4.0 17:12:35 10° NW 17:18:16 90° WSW 17:18:24 86° SSE
Terra 4.2 17:23:38 13° NNE 17:23:38 13° NNE 17:24:28 10° N
Meteor 2-3 Rocket 3.7 17:19:38 10° NNW 17:25:27 86° WSW 17:25:41 82° SSW
SPOT 3 Rocket 4.0 17:25:19 49° SW 17:26:18 58° WSW 17:31:29 10° NNW
Cosmos 2227 Rocket 3.5 17:28:01 10° NNW 17:32:20 29° NNE 17:32:20 29° NNE
MetOp-A 4.3 17:36:52 67° NNW 17:36:52 67° NNW 17:41:32 10° NNW
Cosmos 2297 Rocket 3.4 17:32:28 10° NNW 17:36:39 30° NNE 17:36:39 30° NNE
H-2A R/B 2.8 17:40:42 48° SW 17:41:25 52° W 17:46:46 10° NNW
USA 238 DEB 4.0 17:37:21 10° WSW 17:44:07 64° NNW 17:46:09 46° NNE
USA 238 4.0 17:37:27 10° WSW 17:44:13 64° NNW 17:46:13 46° NNE
Timation 2 Rocket 4.1 17:49:32 10° NW 17:54:41 66° WNW 17:54:41 66° WNW
Cosmos 1125 Rocket 4.4 17:53:54 10° NW 17:57:57 46° WNW 17:57:57 46° WNW
ATLAS 5 CENTAUR R/B 3.3 17:58:10 10° WNW 18:01:48 36° NNW 18:01:48 36° NNW
NOSS 3-2 (A) 4.0 17:59:47 10° WSW 18:05:55 59° NNW 18:06:32 57° N
ADEOS Rocket 3.6 18:01:08 10° NNE 18:08:50 71° WNW 18:13:05 27° SW
Resurs 01 Rocket 3.8 18:15:51 23° NW 18:15:51 23° NW 18:17:45 10° NNW
Cosmos 2278 Rocket 4.3 18:18:36 10° WNW 18:23:06 23° NNW 18:25:42 17° NNE
NOSS 3-2 (C) 4.3 18:26:54 10° WSW 18:31:44 50° WNW 18:31:44 50° WNW
Cosmos 2263 Rocket 4.2 18:34:05 10° NNW 18:37:09 20° N 18:37:09 20° N
ATLAS CENTAUR R/B 4.4 18:35:17 10° WNW 18:36:02 13° WNW 18:36:02 13° WNW
ATLAS 3B R/B 3.9 18:48:57 10° WSW 18:52:29 32° W 18:52:29 32° W
CENTAUR R/B 3.9 18:54:50 10° WSW 18:58:23 34° W 18:58:23 34° W
Cosmos 2227 Rocket 4.3 19:12:05 10° NW 19:14:09 23° NNW 19:14:09 23° NNW
Cosmos 2297 Rocket 4.3 19:16:31 10° NW 19:18:26 22° NW 19:18:26 22° NW
Cosmos 2322 Rocket 4.4 22:56:39 21° NE 22:56:39 21° NE 22:58:27 10° NE
Cosmos 2360 Rocket 4.3 23:02:42 22° NE 23:02:42 22° NE 23:04:47 10° NE
Cosmos 1943 Rocket 4.4 23:01:18 20° N 23:01:41 20° NNE 23:05:48 10° ENE
Cosmos 1980 Rocket 4.3 23:08:24 22° NNE 23:08:24 22° NNE 23:10:37 10° NNE
CZ-2D R/B 4.4 23:00:32 10° NNE 23:02:07 20° NNE 23:02:07 20° NNE
ATLAS 2AS CENTAUR R/B 4.3 23:20:18 30° ESE 23:20:30 30° ESE 23:27:08 10° ENE
Cosmos 2344 4.3 23:26:09 45° NW 23:29:05 63° NNE 23:40:27 10° ESE
COSMOS 2455 4.1 23:35:15 36° ENE 23:35:15 36° ENE 23:38:53 10° NE
Resurs 1-4 Rocket 3.9 23:45:22 10° NNE 23:47:39 26° N 23:47:39 26° N
